Domov               UVHVVR             MKGP            O straneh              
ZDRAVSTVENO VARSTVO RASTLIN
  MREŽA AGROMET. POSTAJ
 ► PROGNOSTIČNA OBVESTILA
AGROMETEOROLOŠKI PODATKI -
ARSO
OBVLADOVANJE TVEGANJ ZARADI
NEUGODNIH VREMENSKIH RAZMER
  ► NARAVNE NESREČE
  ► SUŠA/MOČA
  ► NAMAKANJE
  ► ŽLED (gozdarstvo)
KARTOGRAFSKI PRIKAZI
SPLETNE POVEZAVE
PROJEKTI IN PUBLIKACIJE

AGROMETEOROLOŠKA MREŽA: VREMENSKE POSTAJE IN FENOLOŠKA OPAZOVANJA

Pregled podatkov za lokacijo Črnomelj, meteorološka postaja 859096

Pregled senzorjev na lokaciji

ID Ime Zadnja
vrednost
Datum
zadnje
spremembe
Tip
senzorja
4082 Omočenost lista (U) 0 U 15.12.2018 05:00 A730WET
4083 Padavine (mm) 0 mm 15.12.2018 05:00 Rain-O-Matic
4081 Relativna vlaga 2 m (% RH) 99,43 % RH 15.12.2018 05:00 50YA
4080 Temperatura 2 m (°C) -2,43 °C 15.12.2018 05:00 50YA

Pregled podatkov zadnjih 24 ur

Zap.
št.
Datum in čas Črnomelj
Omočenost
lista
Padavine Relativna
vlaga
2
m
Temperatura
2
m
1 15.12.2018 05:30
2 15.12.2018 05:00 0 0 99,4 -2,4
3 15.12.2018 04:30 0 0 99,4 -2,4
4 15.12.2018 04:00 0 0 98,7 -2,3
5 15.12.2018 03:30 0 0 98,8 -2,2
6 15.12.2018 03:00 0 0 99,1 -2,2
7 15.12.2018 02:30 0 0 99,4 -2,1
8 15.12.2018 02:00 0 0 99,6 -2,1
9 15.12.2018 01:30 0 0 99,3 -2
10 15.12.2018 01:00 0 0 99,1 -1,9
11 15.12.2018 00:30 0 0 98,8 -1,9
12 15.12.2018 00:00 0 0 98,5 -1,8
13 14.12.2018 23:30 0 0 98 -1,8
14 14.12.2018 23:00 0 0 97,1 -1,7
15 14.12.2018 22:30 0 0 97,4 -1,7
16 14.12.2018 22:00 0 0 98 -1,8
17 14.12.2018 21:30 0 0 98 -1,8
18 14.12.2018 21:00 0 0 98,4 -1,8
19 14.12.2018 20:30 0 0 98,4 -1,9
20 14.12.2018 20:00 0 0 98,3 -1,8
21 14.12.2018 19:30 0 0 98,5 -1,7
22 14.12.2018 19:00 0 0 98,3 -1,7
23 14.12.2018 18:30 0 0 97,5 -1,5
24 14.12.2018 18:00 0 0 98,2 -1,5
25 14.12.2018 17:30 0 0 99,1 -1,5
26 14.12.2018 17:00 0 0 99 -1,5
27 14.12.2018 16:30 0 0 98,4 -1,4
28 14.12.2018 16:00 0 0 97,8 -1,2
29 14.12.2018 15:30 0 0 97,1 -1
30 14.12.2018 15:00 0 0 94,7 -0,7
31 14.12.2018 14:30 0 0 92,4 -0,6
32 14.12.2018 14:00 0 0 92,5 -0,3
33 14.12.2018 13:30 0 0 91,6 -0,4
34 14.12.2018 13:00 0 0 93,5 -0,6
35 14.12.2018 12:30 0 0 94,6 -0,8
36 14.12.2018 12:00 0 0 95,4 -0,8
37 14.12.2018 11:30 0 0 96,6 -1,1
38 14.12.2018 11:00 0 0 99,7 -1,5
39 14.12.2018 10:30 0 0 100 -1,7
40 14.12.2018 10:00 0 0 100 -1,8
41 14.12.2018 09:30 0 0 100 -1,9
42 14.12.2018 09:00 0 0 100 -1,9
43 14.12.2018 08:30 0 0 100 -1,8
44 14.12.2018 08:00 0 0 100 -1,7
45 14.12.2018 07:30 0 0 100 -1,7
46 14.12.2018 07:00 0 0 100 -1,6
47 14.12.2018 06:30 0 0 100 -1,6
48 14.12.2018 06:00 0 0 99,8 -1,5
© 2011 Ministrstvo za kmetijstvo, gozdarstvo in prehrano. Vse pravice pridržane.